Wheaton, MN

5:17 PM CDT on August 24, 2016 (GMT -0500)
Wheaton Municipal

Weather History for KETH - March, 2014

Change the Weather History Date:

Saturday, March 8, 2014

  Actual Average Record
Temperature  
Mean Temperature 22 °F -  
Max Temperature 33 °F 35 °F 68 °F (1987)
Min Temperature 10 °F 15 °F -9 °F (1951)
Degree Days  
Heating Degree Days 44    
Moisture  
Dew Point 15 °F    
Average Humidity 77    
Maximum Humidity 92    
Minimum Humidity 59    
Precipitation  
Precipitation 0.00 in - - ()
Sea Level Pressure  
Sea Level Pressure 30.27 in    
Wind  
Wind Speed 7 mph (WSW)    
Max Wind Speed 12 mph    
Max Gust Speed -    
Visibility 10 miles    
Events      
Averages and records for this station are not official NWS values.
T = Trace of Precipitation, MM = Missing Value Source: NWS Daily Summary

Daily Weather History Graph

Daily Weather History Graph

Search for Another Location

Airport or City:

Trip Planner

Search our weather history database for the weather conditions in past years. The results will help you decide how hot, cold, wet, or windy it might be!

Date:

Astronomy

Mar. 08, 2014 Rise Set
Actual Time 6:51 AM CST 6:22 PM CST
Civil Twilight 6:22 AM CST 6:52 PM CST
Nautical Twilight 5:47 AM CST 7:26 PM CST
Astronomical Twilight 5:13 AM CST 8:01 PM CST
Moon 11:14 AM CST (3/8) 1:40 AM CST (3/8)
Length of Visible Light 12h 30m
Length of Day
11h 30m
First Quarter, 52% of the Moon is Illuminated
Mar 8
First Quarter
Mar 16
Full
Mar 23
Last Quarter
Mar 30
New
Apr 7
First Quarter

Hourly Weather History & Observations

Time (CST) Temp. Windchill Dew Point Humidity Pressure Visibility Wind Dir Wind Speed Gust Speed Precip Events Conditions
12:14 AM 12.2 °F -0.2 °F 8.6 °F 85% 30.33 in 10.0 mi NW 9.2 mph - N/A   Clear
12:34 AM 12.2 °F -1.8 °F 8.6 °F 85% 30.33 in 10.0 mi NW 11.5 mph - N/A   Clear
12:54 AM 12.2 °F -1.8 °F 8.6 °F 85% 30.34 in 10.0 mi NW 11.5 mph - N/A   Clear
1:14 AM 12.2 °F 0.7 °F 8.6 °F 85% 30.34 in 10.0 mi NW 8.1 mph - N/A   Clear
1:34 AM 10.4 °F -1.5 °F 8.6 °F 92% 30.35 in 10.0 mi NW 8.1 mph - N/A   Clear
1:54 AM 10.4 °F -1.5 °F 8.6 °F 92% 30.35 in 10.0 mi NW 8.1 mph - N/A   Scattered Clouds
2:14 AM 12.2 °F 1.7 °F 8.6 °F 85% 30.35 in 10.0 mi NW 6.9 mph - N/A   Mostly Cloudy
2:34 AM 12.2 °F 1.7 °F 8.6 °F 85% 30.35 in 10.0 mi NW 6.9 mph - N/A   Overcast
2:54 AM 12.2 °F 0.7 °F 8.6 °F 85% 30.34 in 10.0 mi NNW 8.1 mph - N/A   Overcast
3:14 AM 12.2 °F 2.9 °F 8.6 °F 85% 30.34 in 10.0 mi NNW 5.8 mph - N/A   Overcast
3:34 AM 12.2 °F 2.9 °F 8.6 °F 85% 30.33 in 10.0 mi NNW 5.8 mph - N/A   Overcast
3:54 AM 12.2 °F -0.2 °F 8.6 °F 85% 30.34 in 10.0 mi NNW 9.2 mph - N/A   Overcast
4:14 AM 12.2 °F 2.9 °F 8.6 °F 85% 30.34 in 10.0 mi NW 5.8 mph - N/A   Scattered Clouds
4:34 AM 10.4 °F 2.2 °F 6.8 °F 85% 30.35 in 10.0 mi NW 4.6 mph - N/A   Scattered Clouds
4:54 AM 10.4 °F 4.0 °F 8.6 °F 92% 30.35 in 10.0 mi NW 3.5 mph - N/A   Mostly Cloudy
5:14 AM 12.2 °F 2.9 °F 8.6 °F 85% 30.35 in 10.0 mi NW 5.8 mph - N/A   Overcast
5:34 AM 12.2 °F 1.7 °F 8.6 °F 85% 30.36 in 10.0 mi NW 6.9 mph - N/A   Overcast
5:54 AM 12.2 °F 0.7 °F 8.6 °F 85% 30.36 in 10.0 mi NW 8.1 mph - N/A   Overcast
6:14 AM 12.2 °F 4.3 °F 8.6 °F 85% 30.35 in 10.0 mi WNW 4.6 mph - N/A   Mostly Cloudy
6:34 AM 12.2 °F 6.1 °F 8.6 °F 85% 30.35 in 10.0 mi WNW 3.5 mph - N/A   Overcast
6:54 AM 12.2 °F 6.1 °F 8.6 °F 85% 30.35 in 10.0 mi NW 3.5 mph - N/A   Overcast
7:14 AM 14.0 °F - 8.6 °F 79% 30.35 in 10.0 mi Calm Calm - N/A   Overcast
7:34 AM 14.0 °F 8.2 °F 8.6 °F 79% 30.35 in 10.0 mi NNW 3.5 mph - N/A   Overcast
7:54 AM 14.0 °F 8.2 °F 8.6 °F 79% 30.36 in 10.0 mi NNW 3.5 mph - N/A   Overcast
8:14 AM 15.8 °F 10.2 °F 10.4 °F 79% 30.36 in 10.0 mi NW 3.5 mph - N/A   Overcast
8:34 AM 15.8 °F - 10.4 °F 79% 30.37 in 10.0 mi Calm Calm - N/A   Overcast
8:54 AM 15.8 °F 8.6 °F 10.4 °F 79% 30.37 in 10.0 mi NW 4.6 mph - N/A   Overcast
9:14 AM 15.8 °F 8.6 °F 10.4 °F 79% 30.37 in 10.0 mi NW 4.6 mph - N/A   Overcast
9:34 AM 17.6 °F 10.7 °F 10.4 °F 73% 30.37 in 10.0 mi WNW 4.6 mph - N/A   Overcast
9:54 AM 17.6 °F 12.3 °F 10.4 °F 73% 30.36 in 10.0 mi West 3.5 mph - N/A   Overcast
10:14 AM 19.4 °F - 12.2 °F 74% 30.37 in 10.0 mi Calm Calm - N/A   Overcast
10:34 AM 19.4 °F 14.3 °F 12.2 °F 74% 30.36 in 10.0 mi West 3.5 mph - N/A   Overcast
10:54 AM 21.2 °F 16.4 °F 12.2 °F 68% 30.36 in 10.0 mi WSW 3.5 mph - N/A   Overcast
11:14 AM 21.2 °F 14.9 °F 14.0 °F 74% 30.35 in 10.0 mi SW 4.6 mph - N/A   Overcast
11:34 AM 21.2 °F - 14.0 °F 74% 30.35 in 10.0 mi Calm Calm - N/A   Overcast
11:54 AM 23.0 °F 17.0 °F 15.8 °F 74% 30.34 in 10.0 mi South 4.6 mph - N/A   Overcast
12:14 PM 23.0 °F 14.7 °F 15.8 °F 74% 30.33 in 10.0 mi SSW 6.9 mph - N/A   Overcast
12:34 PM 24.8 °F 19.1 °F 15.8 °F 69% 30.33 in 10.0 mi WSW 4.6 mph - N/A   Overcast
12:54 PM 26.6 °F 22.6 °F 15.8 °F 64% 30.32 in 10.0 mi South 3.5 mph - N/A   Overcast
1:14 PM 26.6 °F 21.2 °F 15.8 °F 64% 30.30 in 10.0 mi WSW 4.6 mph - N/A   Overcast
1:34 PM 28.4 °F 24.6 °F 15.8 °F 59% 30.30 in 10.0 mi SW 3.5 mph - N/A   Overcast
1:54 PM 28.4 °F 22.2 °F 17.6 °F 64% 30.29 in 10.0 mi SW 5.8 mph - N/A   Overcast
2:14 PM 30.2 °F 21.9 °F 17.6 °F 60% 30.27 in 10.0 mi SW 9.2 mph - N/A   Overcast
2:34 PM 30.2 °F 21.9 °F 17.6 °F 60% 30.27 in 10.0 mi SW 9.2 mph - N/A   Mostly Cloudy
2:54 PM 30.2 °F 23.4 °F 17.6 °F 60% 30.26 in 10.0 mi SW 6.9 mph - N/A   Overcast
3:14 PM 30.2 °F 23.4 °F 19.4 °F 64% 30.26 in 10.0 mi SSW 6.9 mph - N/A   Mostly Cloudy
3:34 PM 30.2 °F 22.6 °F 17.6 °F 60% 30.25 in 10.0 mi SW 8.1 mph - N/A   Scattered Clouds
3:54 PM 32.0 °F 24.8 °F 19.4 °F 60% 30.25 in 10.0 mi WSW 8.1 mph - N/A   Clear
4:14 PM 32.0 °F 24.8 °F 19.4 °F 60% 30.24 in 10.0 mi SW 8.1 mph - N/A   Clear
4:34 PM 32.0 °F 24.8 °F 19.4 °F 60% 30.23 in 10.0 mi SW 8.1 mph - N/A   Clear
4:54 PM 32.0 °F 25.6 °F 21.2 °F 64% 30.23 in 10.0 mi SW 6.9 mph - N/A   Clear
5:14 PM 33.8 °F 27.0 °F 21.2 °F 60% 30.23 in 10.0 mi SW 8.1 mph - N/A   Clear
5:34 PM 32.0 °F 26.4 °F 23.0 °F 69% 30.22 in 10.0 mi SW 5.8 mph - N/A   Mostly Cloudy
5:54 PM 32.0 °F 27.5 °F 24.8 °F 75% 30.22 in 10.0 mi SW 4.6 mph - N/A   Overcast
6:14 PM 32.0 °F 25.6 °F 24.8 °F 75% 30.21 in 10.0 mi SSW 6.9 mph - N/A   Overcast
6:34 PM 30.2 °F 21.9 °F 24.8 °F 80% 30.19 in 10.0 mi SSW 9.2 mph - N/A   Overcast
6:54 PM 30.2 °F 22.6 °F 23.0 °F 75% 30.18 in 10.0 mi South 8.1 mph - N/A   Scattered Clouds
7:14 PM 28.4 °F 21.2 °F 24.8 °F 86% 30.18 in 10.0 mi South 6.9 mph - N/A   Clear
7:34 PM 28.4 °F 22.2 °F 24.8 °F 86% 30.18 in 10.0 mi South 5.8 mph - N/A   Clear
7:54 PM 28.4 °F 21.2 °F 24.8 °F 86% 30.16 in 10.0 mi South 6.9 mph - N/A   Clear
8:14 PM 28.4 °F 20.4 °F 24.8 °F 86% 30.15 in 10.0 mi SSE 8.1 mph - N/A   Clear
8:34 PM 28.4 °F 19.7 °F 23.0 °F 80% 30.14 in 10.0 mi SSE 9.2 mph - N/A   Clear
8:54 PM 28.4 °F 19.7 °F 23.0 °F 80% 30.13 in 10.0 mi SSE 9.2 mph - N/A   Clear
9:14 PM 28.4 °F 19.7 °F 23.0 °F 80% 30.13 in 10.0 mi SSE 9.2 mph - N/A   Clear
9:34 PM 26.6 °F 17.5 °F 23.0 °F 86% 30.13 in 10.0 mi SSE 9.2 mph - N/A   Clear
9:54 PM 26.6 °F 16.8 °F 21.2 °F 80% 30.11 in 10.0 mi SSE 10.4 mph - N/A   Clear
10:14 PM 26.6 °F 16.8 °F 21.2 °F 80% 30.10 in 10.0 mi SSE 10.4 mph - N/A   Clear
10:34 PM 26.6 °F 16.2 °F 21.2 °F 80% 30.09 in 10.0 mi SSE 11.5 mph - N/A   Clear
10:54 PM 26.6 °F 16.8 °F 21.2 °F 80% 30.07 in 10.0 mi SSE 10.4 mph - N/A   Clear
11:14 PM 26.6 °F 17.5 °F 21.2 °F 80% 30.05 in 10.0 mi SSE 9.2 mph - N/A   Clear
11:34 PM 26.6 °F 16.8 °F 21.2 °F 80% 30.04 in 10.0 mi SSE 10.4 mph - N/A   Clear
11:54 PM 26.6 °F 17.5 °F 21.2 °F 80% 30.03 in 10.0 mi SSE 9.2 mph - N/A   Clear